Weather History for Farmingdale, NY

Change the Weather History Date:

Thursday, January 30, 2014

  Actual Average Record
Temperature  
Mean Temperature 17 °F -  
Max Temperature 26 °F 37 °F 62 °F (2006)
Min Temperature 8 °F 23 °F 8 °F (2014)
Degree Days  
Heating Degree Days 48    
Moisture  
Dew Point 7 °F    
Average Humidity 61    
Maximum Humidity 88    
Minimum Humidity 40    
Precipitation  
Precipitation 0.00 in - - ()
Sea Level Pressure  
Sea Level Pressure 30.37 in    
Wind  
Wind Speed 4 mph (SW)    
Max Wind Speed 10 mph    
Max Gust Speed -    
Visibility 10 miles    
Events      
Averages and records for this station are not official NWS values.
T = Trace of Precipitation, MM = Missing Value Source: NWS Daily Summary

Daily Weather History Graph

Daily Weather History Graph

Search for Another Location

Airport:

Trip Planner

Search our weather history database for the weather conditions in past years. The results will help you decide how hot, cold, wet, or windy it might be!

Date:

Astronomy

Jan. 30, 2014 Rise Set
Actual Time 7:05 AM EST 5:08 PM EST
Civil Twilight 6:36 AM EST 5:37 PM EST
Nautical Twilight 6:03 AM EST 6:10 PM EST
Astronomical Twilight 5:31 AM EST 6:43 PM EST
Moon 6:29 AM EST (1/30) 5:17 PM EST (1/30)
Length of Visible Light 11h 01m
Length of Day
10h 03m
Waning Crescent, 0% of the Moon is Illuminated
Jan 30
Waning Crescent
Jan 30
New
Feb 6
First Quarter
Feb 14
Full
Feb 22
Last Quarter

Hourly Weather History & Observations

Time (EST) Temp. Windchill Dew Point Humidity Pressure Visibility Wind Dir Wind Speed Gust Speed Precip Events Conditions
12:53 AM 16.0 °F 10.4 °F -0.9 °F 47% 30.33 in 10.0 mi West 3.5 mph - N/A   Clear
1:53 AM 14.0 °F 5.1 °F -0.0 °F 54% 30.35 in 10.0 mi WSW 5.8 mph - N/A   Clear
2:53 AM 12.9 °F 6.9 °F 1.9 °F 62% 30.37 in 10.0 mi WNW 3.5 mph - N/A   Clear
3:53 AM 10.9 °F 4.7 °F 1.0 °F 64% 30.38 in 10.0 mi WSW 3.5 mph - N/A   Clear
4:53 AM 12.9 °F 2.6 °F 3.0 °F 65% 30.41 in 10.0 mi West 6.9 mph - N/A   Clear
5:53 AM 12.9 °F 5.2 °F 1.9 °F 62% 30.42 in 10.0 mi WSW 4.6 mph - N/A   Clear
6:53 AM 8.1 °F - -0.0 °F 70% 30.44 in 10.0 mi Calm Calm - N/A   Clear
7:53 AM 12.0 °F - 3.9 °F 70% 30.45 in 10.0 mi Calm Calm - N/A   Clear
8:53 AM 18.0 °F 12.7 °F 1.9 °F 50% 30.45 in 10.0 mi NW 3.5 mph - N/A   Clear
9:29 AM 21.2 °F 13.6 °F 1.4 °F 42% 30.46 in 10.0 mi NW 5.8 mph - N/A   Clear
9:53 AM 21.0 °F 14.6 °F 1.0 °F 42% 30.47 in 10.0 mi NW 4.6 mph - N/A   Clear
10:53 AM 21.9 °F - 1.0 °F 40% 30.48 in 10.0 mi Calm Calm - N/A   Clear
11:53 AM 24.1 °F 19.7 °F 5.0 °F 44% 30.44 in 10.0 mi South 3.5 mph - N/A   Clear
12:53 PM 25.0 °F 16.3 °F 8.1 °F 49% 30.42 in 10.0 mi SSW 8.1 mph - N/A   Clear
1:53 PM 25.0 °F 18.1 °F 10.0 °F 53% 30.39 in 10.0 mi SSW 5.8 mph - N/A   Clear
2:53 PM 26.1 °F 17.6 °F 10.0 °F 51% 30.38 in 10.0 mi South 8.1 mph - N/A   Clear
3:53 PM 25.0 °F 14.8 °F 10.0 °F 53% 30.38 in 10.0 mi SW 10.4 mph - N/A   Clear
4:53 PM 24.1 °F 16.0 °F 10.0 °F 55% 30.37 in 10.0 mi SW 6.9 mph - N/A   Clear
5:53 PM 21.9 °F 15.7 °F 12.0 °F 66% 30.35 in 10.0 mi South 4.6 mph - N/A   Clear
6:53 PM 21.9 °F 14.5 °F 14.0 °F 72% 30.31 in 10.0 mi South 5.8 mph - N/A   Clear
7:53 PM 21.9 °F 14.5 °F 15.1 °F 75% 30.28 in 10.0 mi South 5.8 mph - N/A   Clear
8:53 PM 24.1 °F 19.7 °F 18.0 °F 77% 30.29 in 10.0 mi West 3.5 mph - N/A   Clear
9:53 PM 19.9 °F - 16.0 °F 85% 30.25 in 10.0 mi Calm Calm - N/A   Clear
10:53 PM 19.9 °F - 16.0 °F 85% 30.24 in 10.0 mi Calm Calm - N/A   Clear
11:53 PM 19.0 °F - 16.0 °F 88% 30.21 in 10.0 mi Calm Calm - N/A   Clear